Вернуться в каталог

CZ-3A DEB

LostHEO
NORAD 36970·DEBRIS·🇨🇳 China

Запущен Feb 2, 2007 с Xichang Satellite Launch Center

Loading…

Ближайшие Пролёты (ближайшие 24 часа)

TLE

УстаревшееSource: Space-Track

Эпоха: Feb 5, 2017, 14:44 UTC

1 36970U 07003AG  17036.61393132  .00000268  00000-0  99372-2 0  9998
2 36970  24.7500 191.5573 7542500 251.5532  13.1415  1.76645588 58550

Отслеживайте CZ-3A DEB в реальном времени с AllMySat

Download on the App Store